Sitka, AK

8:25 PM AKDT on April 25, 2018 (GMT -0800)
Sitka Rocky Gutierrez

Weather History for PASI - December, 2012

Change the Weather History Date:

Sunday, December 16, 2012

  Actual Average Record
Temperature  
Mean Temperature 32 °F 37 °F  
Max Temperature 35 °F 41 °F 54 °F (2005)
Min Temperature 30 °F 33 °F 13 °F (1964)
Degree Days  
Heating Degree Days 32 28  
Month to date heating degree days 446  
Moisture  
Dew Point 32 °F    
Average Humidity 94    
Maximum Humidity 100    
Minimum Humidity 82    
Precipitation  
Precipitation 0.13 in 0.29 in 2.51 in (1954)
Month to date precipitation 4.79  
Year to date precipitation 82.75  
Sea Level Pressure  
Sea Level Pressure 29.18 in    
Wind  
Wind Speed 6 mph (ESE)    
Max Wind Speed 13 mph    
Max Gust Speed -    
Visibility 5 miles    
Events Fog , Snow    
T = Trace of Precipitation, MM = Missing Value Source: NWS Daily Summary

Daily Weather History Graph

Daily Weather History Graph

Search for Another Location

Airport or City:

Astronomy

Dec. 16, 2012 Rise Set
Actual Time 8:35 AM AKST 3:19 PM AKST
Civil Twilight 7:46 AM AKST 4:08 PM AKST
Nautical Twilight 6:55 AM AKST 4:59 PM AKST
Astronomical Twilight 6:08 AM AKST 5:46 PM AKST
Moon 10:32 AM AKST (12/16) 8:28 PM AKST (12/16)
Length of Visible Light 8h 22m
Length of Day
6h 43m
Waxing Crescent, 17% of the Moon is Illuminated
Dec 16
Waxing Crescent
Dec 19
First Quarter
Dec 28
Full
Jan 4
Last Quarter
Jan 11
New

Hourly Weather History & Observations

Time (AKST) Temp. Windchill Dew Point Humidity Pressure Visibility Wind Dir Wind Speed Gust Speed Precip Events Conditions
12:37 AM 33.8 °F 30.8 °F 32.0 °F 93% 29.18 in 10.0 mi East 3.5 mph - 0.00 in   Overcast
12:53 AM 34.0 °F - 32.0 °F 92% 29.18 in 10.0 mi Calm Calm - 0.00 in   Mostly Cloudy
1:28 AM 33.8 °F 29.6 °F 33.8 °F 100% 29.18 in 10.0 mi NNE 4.6 mph - 0.00 in Snow Light Snow
1:53 AM 35.1 °F 27.9 °F 33.1 °F 92% 29.18 in 9.0 mi North 9.2 mph - 0.00 in Snow Light Snow
2:20 AM 33.8 °F 27.0 °F 33.8 °F 100% 29.19 in 3.0 mi West 8.1 mph - 0.01 in Snow Light Snow
2:23 AM 33.8 °F 27.7 °F 33.8 °F 100% 29.19 in 1.8 mi West 6.9 mph - 0.02 in Snow Light Snow
2:31 AM 33.8 °F 29.6 °F 33.8 °F 100% 29.19 in 1.2 mi West 4.6 mph - 0.04 in Snow Light Snow
2:44 AM 33.8 °F - 33.8 °F 100% 29.19 in 0.8 mi Calm Calm - 0.07 in Snow Light Snow
3:10 AM 33.8 °F 28.6 °F 32.0 °F 93% 29.19 in 1.0 mi East 5.8 mph - 0.02 in Snow Light Snow
3:31 AM 33.8 °F 27.7 °F 33.8 °F 100% 29.18 in 3.0 mi East 6.9 mph - 0.03 in Snow Light Snow
3:39 AM 33.8 °F 27.0 °F 33.8 °F 100% 29.18 in 3.0 mi East 8.1 mph - 0.04 in Snow Light Snow
3:53 AM 33.1 °F 26.1 °F 32.0 °F 96% 29.18 in 6.0 mi East 8.1 mph - 0.04 in Snow Light Snow
4:09 AM 33.8 °F 27.0 °F 32.0 °F 93% 29.17 in 10.0 mi East 8.1 mph - 0.00 in   Scattered Clouds
4:53 AM 34.0 °F 27.2 °F 32.0 °F 92% 29.17 in 10.0 mi ESE 8.1 mph - 0.00 in   Mostly Cloudy
4:59 AM 33.8 °F 26.4 °F 32.0 °F 93% 29.17 in 10.0 mi ESE 9.2 mph - 0.00 in Snow Light Snow
5:48 AM 33.8 °F 25.8 °F 32.0 °F 93% 29.17 in 4.0 mi East 10.4 mph - 0.00 in Snow Light Snow
5:53 AM 34.0 °F 25.5 °F 32.0 °F 92% 29.17 in 4.0 mi ESE 11.5 mph - 0.00 in Snow Light Snow
6:28 AM 33.8 °F 27.0 °F 32.0 °F 93% 29.17 in 7.0 mi ESE 8.1 mph - 0.00 in   Overcast
6:53 AM 34.0 °F 25.5 °F 32.0 °F 92% 29.16 in 7.0 mi East 11.5 mph - 0.00 in   Mostly Cloudy
7:53 AM 33.1 °F 27.7 °F 32.0 °F 96% 29.16 in 10.0 mi ESE 5.8 mph - N/A   Mostly Cloudy
8:53 AM 35.1 °F 27.4 °F 32.0 °F 89% 29.17 in 4.0 mi SSE 10.4 mph - N/A   Overcast
8:57 AM 35.6 °F 27.5 °F 32.0 °F 87% 29.18 in 2.5 mi South 11.5 mph - 0.00 in Snow Light Snow
9:03 AM 33.8 °F 27.7 °F 32.0 °F 93% 29.18 in 1.5 mi South 6.9 mph - 0.00 in Snow Light Snow
9:12 AM 33.8 °F 27.0 °F 33.8 °F 100% 29.18 in 0.8 mi SSE 8.1 mph - 0.00 in Snow Light Snow
9:28 AM 33.8 °F 27.7 °F 33.8 °F 100% 29.18 in 4.0 mi East 6.9 mph - 0.01 in Snow Light Snow
9:51 AM 33.8 °F 29.6 °F 33.8 °F 100% 29.18 in 7.0 mi East 4.6 mph - 0.01 in   Overcast
9:53 AM 33.1 °F 28.7 °F 33.1 °F 100% 29.18 in 7.0 mi East 4.6 mph - 0.01 in   Overcast
10:34 AM 35.6 °F 27.1 °F 32.0 °F 87% 29.18 in 1.0 mi SE 12.7 mph - 0.00 in Snow Light Snow
10:38 AM 33.8 °F 25.3 °F 32.0 °F 93% 29.18 in 0.8 mi SE 11.5 mph - 0.00 in Snow Light Snow
10:53 AM 34.0 °F 28.0 °F 33.1 °F 96% 29.18 in 1.5 mi East 6.9 mph - 0.01 in Snow Light Snow
11:02 AM 33.8 °F 29.6 °F 33.8 °F 100% 29.17 in 5.0 mi ESE 4.6 mph - 0.00 in Snow Light Snow
11:11 AM 33.8 °F 28.6 °F 32.0 °F 93% 29.17 in 6.0 mi SSE 5.8 mph - 0.00 in   Overcast
11:53 AM 35.1 °F 31.0 °F 33.1 °F 92% 29.18 in 7.0 mi SSE 4.6 mph - 0.00 in   Overcast
12:12 PM 35.6 °F 30.7 °F 33.8 °F 93% 29.18 in 2.0 mi South 5.8 mph - 0.00 in Snow Light Snow
12:17 PM 33.8 °F 27.0 °F 33.8 °F 100% 29.18 in 2.0 mi South 8.1 mph - 0.00 in Snow Light Snow
12:30 PM 33.8 °F 27.0 °F 33.8 °F 100% 29.18 in 1.0 mi South 8.1 mph - 0.00 in Snow Light Snow
12:39 PM 33.8 °F 28.6 °F 32.0 °F 93% 29.18 in 0.5 mi SSE 5.8 mph - 0.01 in Fog , Snow Snow
12:49 PM 33.8 °F 28.6 °F 32.0 °F 93% 29.18 in 0.5 mi SSE 5.8 mph - 0.02 in Fog , Snow Snow
12:53 PM 33.1 °F 27.7 °F 32.0 °F 96% 29.18 in 0.5 mi ESE 5.8 mph - 0.02 in Fog , Snow Snow
12:59 PM 33.8 °F 29.6 °F 32.0 °F 93% 29.17 in 5.0 mi East 4.6 mph - 0.01 in Snow Light Snow
1:14 PM 33.8 °F - 33.8 °F 100% 29.18 in 4.0 mi Calm Calm - 0.01 in   Overcast
1:24 PM 33.8 °F 28.6 °F 33.8 °F 100% 29.19 in 1.5 mi SSE 5.8 mph - 0.01 in Snow Light Snow
1:30 PM 33.8 °F 25.8 °F 33.8 °F 100% 29.19 in 0.5 mi SSE 10.4 mph - 0.01 in Fog , Snow Snow
1:34 PM 33.8 °F 25.3 °F 32.0 °F 93% 29.19 in 0.5 mi SSE 11.5 mph - 0.02 in Fog , Snow Snow
1:44 PM 33.8 °F 28.6 °F 32.0 °F 93% 29.19 in 0.5 mi SE 5.8 mph - 0.03 in Fog , Snow Snow
1:46 PM 32.0 °F 27.5 °F 32.0 °F 100% 29.19 in 2.5 mi ESE 4.6 mph - 0.03 in Snow Light Snow
1:53 PM 33.1 °F 28.7 °F 33.1 °F 100% 29.19 in 2.5 mi East 4.6 mph - 0.03 in Snow Light Snow
1:55 PM 33.8 °F 29.6 °F 33.8 °F 100% 29.19 in 3.0 mi East 4.6 mph - 0.00 in Snow Light Snow
2:53 PM 33.1 °F 26.9 °F 30.9 °F 92% 29.18 in 10.0 mi East 6.9 mph - 0.00 in   Mostly Cloudy
3:00 PM 33.8 °F 27.7 °F 30.2 °F 87% 29.17 in 10.0 mi East 6.9 mph - N/A   Mostly Cloudy
3:53 PM 33.1 °F 25.5 °F 30.0 °F 89% 29.17 in 9.0 mi ESE 9.2 mph - N/A   Mostly Cloudy
4:53 PM 33.1 °F 26.1 °F 30.0 °F 89% 29.17 in 10.0 mi East 8.1 mph - N/A   Mostly Cloudy
5:20 PM 33.8 °F 25.3 °F 30.2 °F 87% 29.18 in 2.0 mi SSW 11.5 mph - 0.00 in Snow Light Snow
5:22 PM 33.8 °F 27.0 °F 32.0 °F 93% 29.18 in 1.5 mi South 8.1 mph - 0.00 in Snow Light Snow
5:53 PM 33.1 °F 26.9 °F 32.0 °F 96% 29.18 in 1.5 mi SSW 6.9 mph - 0.01 in Snow Light Snow
6:02 PM 33.8 °F 28.6 °F 32.0 °F 93% 29.18 in 2.5 mi South 5.8 mph - 0.01 in Snow Light Snow
6:17 PM 33.8 °F 27.7 °F 32.0 °F 93% 29.18 in 4.0 mi SSW 6.9 mph - 0.01 in Snow Light Snow
6:53 PM 32.0 °F 27.5 °F 30.9 °F 96% 29.18 in 7.0 mi East 4.6 mph - 0.01 in   Overcast
7:05 PM 32.0 °F 27.5 °F 30.2 °F 93% 29.18 in 10.0 mi East 4.6 mph - N/A   Overcast
7:53 PM 30.9 °F 23.5 °F 28.9 °F 92% 29.17 in 10.0 mi East 8.1 mph - N/A   Overcast
8:53 PM 32.0 °F 23.6 °F 28.0 °F 85% 29.17 in 10.0 mi East 10.4 mph - N/A   Mostly Cloudy
9:53 PM 32.0 °F 25.6 °F 27.0 °F 82% 29.17 in 10.0 mi East 6.9 mph - N/A   Clear
10:53 PM 30.9 °F 26.2 °F 26.1 °F 82% 29.17 in 10.0 mi East 4.6 mph - N/A   Clear
11:53 PM 30.0 °F 24.1 °F 26.1 °F 85% 29.18 in 10.0 mi ENE 5.8 mph - N/A   Mostly Cloudy